User: anonymous   Login
Location: Peebles
(55.6412°N, 3.1714°W)
Time: 08:48:54
(UTC+00:00)
Language:

RS-15 - Orbit

View from above orbital plane
View from above orbital plane
View from above satellite
View from above satellite

Ground track
Ground track

The orbit data is extracted from the following two-line orbital elements,

1 23439U 94085A   22333.89263298 -.00000039  00000-0  10000-3 0  9994
2 23439  64.8131 238.0262 0167141 244.4481 113.9082 11.27573074150148
Epoch (UTC): 29 November 2022 21:25:23
Eccentricity: 0.0167141
inclination: 64.8131°
perigee height: 1882 km
apogee height: 2163 km
right ascension of ascending node: 238.0262°
argument of perigee: 244.4481°
revolutions per day: 11.27573074
mean anomaly at epoch: 113.9082°
orbit number at epoch: 15014

The dashed part of the orbit path shows where the satellite is in the earth's shadow,  

DLR